Powrót do katalogu

DSAT

AktywnyNaukaSSO
NORAD 42794·PAYLOAD·🇮🇹 Italy

Wystrzelony Jun 23, 2017 z Satish Dhawan Space Centre

Loading…

Następne Przeloty (najbliższe 24 godziny)

TLE

ŚwieżeSource: Space-Track

Epoka: Sep 13, 2026, 21:52 UTC

1 42794U 17036AF  26256.91148895  .00004080  00000-0  18787-3 0  9995
2 42794  97.5663 235.7049 0078736 212.6782 146.9568 15.18129701504310

Śledź DSAT w czasie rzeczywistym z AllMySat

Download on the App Store